This is the latest recevied weather packets stored in our database for station/object EA2MKR. If no packets are shown the sender has not sent any weather packets the latest 10 day(s).
| Time | Temp. | Humidity | Pressure | Rain* | Wind** | Luminosity | Snow |
|---|---|---|---|---|---|---|---|
| 1777899330 | 10° C | 92% | 950.5 hPa | 5.84 mm | - | - | - |
| 1777899132 | 10° C | 92% | 950.5 hPa | 5.08 mm | - | - | - |
| 1777898732 | 10° C | 92% | 950.5 hPa | 4.57 mm | - | - | - |
| 1777898431 | 10° C | 92% | 950.5 hPa | 4.32 mm | - | - | - |
| 1777898131 | 10° C | 91% | 950.5 hPa | 3.3 mm | - | - | - |
| 1777897831 | 10.56° C | 91% | 950.6 hPa | 1.52 mm | - | - | - |
| 1777897531 | 10.56° C | 90% | 950.6 hPa | 0.25 mm | - | - | - |
| 1777897231 | 11.11° C | 90% | 950.3 hPa | 0.25 mm | - | - | - |
| 1777896931 | 11.11° C | 87% | 949.3 hPa | 0.25 mm | - | - | - |
| 1777896631 | 11.11° C | 87% | 949.1 hPa | 0.25 mm | - | - | - |
| 1777896331 | 11.11° C | 87% | 949.2 hPa | 0.25 mm | - | - | - |
| 1777896131 | 11.11° C | 86% | 948.8 hPa | 0.25 mm | - | - | - |
| 1777895731 | 11.67° C | 86% | 948.9 hPa | 0.25 mm | - | - | - |
| 1777895531 | 11.67° C | 85% | 949 hPa | 0.25 mm | - | - | - |
| 1777895131 | 11.67° C | 86% | 949.2 hPa | 0.25 mm | - | - | - |
| 1777894932 | 11.67° C | 86% | 949.3 hPa | 0.25 mm | - | - | - |
| 1777894531 | 11.67° C | 87% | 949.2 hPa | 0.25 mm | - | - | - |
| 1777894232 | 11.67° C | 86% | 949.1 hPa | 0.25 mm | - | - | - |
| 1777893931 | 12.22° C | 84% | 949.2 hPa | 0.25 mm | - | - | - |
| 1777893732 | 12.22° C | 86% | 949.1 hPa | 0 mm | - | - | - |
| 1777893331 | 12.22° C | 87% | 949.2 hPa | 0 mm | - | - | - |
| 1777893031 | 12.22° C | 86% | 949.4 hPa | 0 mm | - | - | - |
| 1777892731 | 12.22° C | 86% | 949.4 hPa | 0 mm | - | - | - |
| 1777892431 | 12.22° C | 85% | 949.7 hPa | 0 mm | - | - | - |
| 1777892131 | 12.22° C | 85% | 949.5 hPa | 0 mm | - | - | - |
* Rain latest hour (hover to see other rain measurements)
** Current wind speed in m/s (hover to see current wind gust speed)